Regional Weather Roundup
Issued by NWS Wakefield, VA

Home | Current Version | Previous Version | Text Only | Print | Product List | Glossary On
Versions: 1 2 3 4 5 6 7 8 9 10 11 12 13 14 15 16 17 18 19 20 21 22 23 24 25 26 27 28 29 30 31 32 33 34 35 36 37 38 39 40 41 42 43 44 45 46 47 48 49 50
000
ASUS41 KAKQ 290315
RWRAKQ

REGIONAL WEATHER ROUNDUP
NATIONAL WEATHER SERVICE WAKEFIELD VA
1100 PM EDT THU MAY 28 2015

Note: "fair" indicates few or no clouds below 12,000 feet with no
significant weather and/or obstructions to visibility. * = Denotes
station may not report precipitation (e.g., rain,snow,etc.),
thunder or fog.

VAZ042-051-052>054-056-290400-
NORTHERN VIRGINIA

CITY           SKY/WX    TMP DP  RH WIND       PRES   REMARKS
WASH NATIONAL  CLOUDY    77  69  76 SW5       30.20S
DULLES         MOCLDY    73  66  78 CALM      30.21R
FORT BELVOIR   CLOUDY    72  68  87 CALM      30.20R
QUANTICO       CLOUDY    75  69  81 NW5       30.20R
FREDERICKSBRG* CLOUDY    76  70  83 CALM      30.19S
STAFFORD*      CLOUDY    71  68  93 CALM      30.24S
WARRENTON      CLOUDY    69  68  97 CALM      30.21R
CULPEPER*      MOCLDY    66  63  90 CALM      30.22R
MANASSAS*      MOCLDY    70  68  94 CALM      30.21
LEESBURG*      MOCLDY    73  68  83 W10       30.22S
WINCHESTER     CLOUDY    72  64  78 E3        30.23S
FRONT ROYAL*   FAIR      70  66  88 CALM      30.22R
LURAY*         FAIR      70  68  94 S5        30.24R
$$

VAZ048-049-060>072-079>083-290400-
CENTRAL AND SOUTH CENTRAL VIRGINIA

CITY           SKY/WX    TMP DP  RH WIND       PRES   REMARKS
RICHMOND       CLOUDY    77  69  76 SE7       30.20R
CHESTERFIELD*  NOT AVBL
PETERSBURG*    CLOUDY    72  72 100 CALM      30.21S
HANOVER        CLOUDY    75  70  84 S3        30.22R
TAPPAHANNOCK*  CLOUDY    74  67  80 CALM      30.21R
QUINTON*       FAIR      75  70  85 CALM      30.20S
CHARLOTTSVILLE MOCLDY    70  65  84 CALM      30.22R
GORDONSVILLE*  FAIR      67  67  98 CALM      30.21S FOG
ORANGE*        PTCLDY    70  68  94 CALM      30.23S
LOUISA*        CLOUDY    70  66  88 CALM      30.21R
BUMPASS*       FAIR      72  68  88 NE3       30.21S
FARMVILLE*     CLOUDY    70  65  82 CALM      30.20R
CREWE*         FAIR      71  67  89 CALM      30.21S
FORT PICKETT*  MOCLDY    72  69  89 CALM      30.22R
CHASE CITY*    FAIR      72  70  94 CALM      30.22R
CLARKSVILLE*   FAIR      70  66  88 CALM      30.20R
SOUTH HILL*    MOCLDY    73  68  85 CALM      30.26R
LAWRENCEVILLE* FAIR      73  70  88 CALM      30.21R
EMPORIA*         N/A     70  68  94 SE3       30.23R
$$

VAZ088>098-290400-
SOUTHEAST VIRGINIA

CITY           SKY/WX    TMP DP  RH WIND       PRES   REMARKS
NORFOLK        CLEAR     74  65  73 S10       30.22R
VIRGINIA BEACH PTCLDY    76  66  71 S7        30.22R
NORFOLK NAVAL  PTCLDY    79  66  64 S5        30.23R
WEST POINT*    CLOUDY    74  69  82 CALM      30.22R
SALUDA*        FAIR      73  69  87 S7        30.20S
NEWPORT NEWS   PTCLDY    80  67  64 MISG      30.21R
LANGLEY AFB    PTCLDY    76  67  74 S6        30.21R
FORT EUSTIS    PTCLDY    75  75 100 S6        30.20R
WILLIAMSBURG*  MOCLDY    77  73  88 S5        30.22R
HR EXEC AP*    FAIR      73  64  73 S3        30.24R
FRANKLIN*      PTCLDY    73  66  80 S5        30.22S
WAKEFIELD      MOCLDY    75  68  78 VRB5      30.21R
$$

VAZ020-022-025-037-045-290400-
WEST CENTRAL AND SOUTHWEST VIRGINIA

CITY           SKY/WX    TMP DP  RH WIND       PRES   REMARKS
STAUNTON*      MOCLDY    69  65  88 CALM      30.28R
WAYNESBORO*    FAIR      69  64  83 CALM      30.26S
HOT SPRINGS VA CLOUDY    65  59  81 S5        30.36R
LYNCHBURG      CLOUDY    68  64  87 N3        30.24R
DANVILLE       MOCLDY    71  65  81 E3        30.22R
SOUTH BOSTON*  FAIR      67  62  83 CALM      30.21R
MARTINSVILLE   MOCLDY    69  69 100 CALM      30.26S
ROANOKE        MOCLDY    74  63  68 E3        30.26R
BLACKSBURG     MOCLDY    67  66  97 CALM      30.32R FOG
DUBLIN*        CLOUDY    67  65  95 CALM      30.31R
MARION*        CLOUDY    65  62  90 CALM      30.34R
HILLSVILLE*    NOT AVBL
RICHLANDS*     FOG       64  64 100 CALM      30.31R VSB 1/2
WISE*          CLOUDY    64  63  94 CALM      30.30S
ABINGDON*      CLOUDY    69  63  82 E3        30.28R
$$

MDZ021>025-VAZ099-100-290400-
SOUTHERN MARYLAND AND THE DELMARVA PENINSULA

CITY           SKY/WX    TMP DP  RH WIND       PRES   REMARKS
PATUXENT RIVER CLOUDY    73  67  81 CALM      30.20R
BAY BRIDGE APT   N/A    N/A N/A N/A CALM      30.21R
LEONARDTOWN    CLOUDY    72  66  83 CALM      30.22S
DOVER          CLOUDY    76  72  89 SW9       30.18R
GEORGETOWN     PTCLDY    72  66  81 SW5       30.22R
EASTON         CLOUDY    75  73  92 CALM      30.25R
CAMBRIDGE      CLOUDY    73  68  83 CALM      30.21R
SALISBURY      PTCLDY    68  64  87 S5        30.22R
OCEAN CITY     CLEAR     69  62  78 SW9       30.23R
WALLOPS ISLAND CLEAR     66  64  93 S7        30.24R
ACCOMACK*      PTCLDY    70  64  83 S7        30.22S
$$

NCZ012>017-030>032-290400-
NORTH CENTRAL AND EASTERN NORTH CAROLINA

CITY           SKY/WX    TMP DP  RH WIND       PRES   REMARKS
ROANOKE RAPIDS FAIR      72  68  88 CALM      30.21S
RALEIGH        LGT RAIN  74  69  85 SW9       30.22R
ELIZABETH CITY CLEAR     71  62  73 S7        30.24R
AHOSKIE*       PTCLDY    70  64  80 S6        30.23S
EDENTON*       CLEAR     72  64  76 S8        30.24R
CURRITUCK*     CLEAR     72  62  70 CALM      30.24R
KILL DEVIL HLS CLEAR     71  62  73 S3        30.23F
MANTEO         CLEAR     71  63  75 S6        30.25R
CAPE HATTERAS  PTCLDY    73  61  65 SE5       30.25R
TARBORO*       FAIR      72  69  89 CALM      30.23R
GOLDSBORO      CLEAR     73  65  75 CALM      30.21R
WASHINGTON     CLEAR     72  62  71 S6        30.24S
GREENVILLE     PTCLDY    73  64  73 S9        30.24S
NEW BERN       CLEAR     66  60  81 CALM      30.26R
WILMINGTON     CLEAR     67  63  87 NE3       30.23S
$$

VAZ048-290400-
ELSEWHERE

CITY           SKY/WX    TMP DP  RH WIND       PRES   REMARKS
HARRISBURG PA  PTCLDY    74  55  51 N3        30.22R
BALTIMORE      MOCLDY    76  67  73 E12       30.20R
ANNAPOLIS      CLOUDY    74  69  85 SE5       30.21R
ANDREWS AFB    NOT AVBL
PHILADELPHIA   MOCLDY    78  65  63 E10       30.22R
HENDERSON NC   PTCLDY    72  65  79 CALM      30.22R
GREENSBORO     MOCLDY    74  62  66 CALM      30.22R
ROCKY MOUNT    CLEAR     74  67  78 S5        30.22R
$$

VAZ100-290400-
MARINE

STATION/POSITION TIME  TEMP    WIND        PRES    WAVE   SWELL
                       AIR SEA DIR/SP/G            HT/PER HT/PER
                 (UTC) (F)     (DEG/KT/KT) (MB)    (FT/S) (FT/S)
BRANDYWINE LGT   0200   72 66  210/ 13/ 15 1022.7R
CAPE MAY NJ      0200   70 70  180/  5/  7 1022.4R
LEWES DE         0200   74 63  210/  7/ 10 1022.7R
15NM E FENWICK I 0250   64 63              1023.4R   3/ 9
OCEAN-CITY-INLET 0200   62 57  210/  8/ 10 1023.0R
WACHAPREAGUE VA  0200   71 76  210/  9/ 12 1023.2R
THOMAS POINT MD  0300   72 71  170/  7/  8 1023.3R
GOOSES REEF MD   0300   71 70  170/ 10/ 12 1023.6R   1/ 3
COVE POINT MD    0200   71     190/ 10/ 11 1023.2R
SOLOMONS ISLAND  0200      74                N/A
BISHOPS HEAD MD  0200   75 77  170/ 10/ 12 1022.6R
PINEY POINT MD   0200          140/  7/  7   N/A
CAMBRIDGE MD     0200   74 74  170/  5/  8 1022.5R
LEWISETTA VA     0200   74 75              1022.2R
RAPPAHANNOCK LGT 0200          150/ 12/ 13 1023.3R
STINGRAY PT      0300   73 73  180/ 14/ 16 1022.6R   2/ 3
YORK RVR RNG VA  0200   75     180/ 10/ 11 1022.0R
YORKTOWN VA      0200   75 72  170/  3/  5 1022.2R
JAMESTOWN VA     0300   76 77  170/  6/  8 1021.9R
DOMINION TERM VA 0200   77     170/  8/  9 1022.8R
KIPTOPEKE VA     0200      78  170/ 14/ 17   N/A
CHES BAY BRIDGE  0200   74 69  140/  9/ 10 1022.5R
CAPE HENRY VA    0200   71     160/  9/ 12 1021.7R
CHESAPEAKE LGHT  0200   68     170/ 22/ 23 1023.6R
WILLOUBY STN VA  0200   76     170/  9/  9 1023.5R
CAPE HENRY BUOY  0228      62                N/A     3/ 9
1ST LANDING BUOY 0300      69              1023.0R
CAPE CHARLES BUO 0226      67                N/A     3/ 8   2/ 8
OFFSHORE WE BUOY 0211      66                N/A     4/ 8   3/ 8
64NM E OF VA BCH 0250   67 65  140/  4/  6 1023.9R   4/ 9   3/ 9
DUCK PIER NC     0200   67 57  150/ 11/ 12 1022.9R
44100 DUCK FRF   0224      66                N/A     2/ 8
44056 DUCK FRF   0211      62                N/A     2/ 8
OREGON INLET NC  0200   72 78  140/  3/  4 1024.2R
HATTERAS NC      0200   75 77  140/  5/  7 1023.6R
DIAMOND SHLS NC  0250   75 77  130/ 10/ 12 1024.0R   4/ 8   3/ 8
CAPE LOOKOUT NC  0300   74     130/  4/  5 1024.0R
$$


USA.gov is the U.S. government's official web portal to all federal, state and local government web resources and services.